| time (UTC) | temp F | wind direction | speed knots | gust knots | rain 1hr in | rain 24hr in | rain mn in | humidity % | barometer mb |
| 20260906223538 | 49 | 350 | 3.5 | 7.0 | 0.00 | 0.00 | 0.00 | 89 | 1022.2 |
| 20260906222522 | 50 | 350 | 3.5 | 7.8 | 0.00 | 0.00 | 0.00 | 89 | 1022.2 |
| 20260906221527 | 48 | 350 | 3.5 | 7.8 | 0.00 | 0.00 | 0.00 | 94 | 1022.3 |
| 20260906220532 | 48 | 351 | 3.5 | 7.0 | 0.00 | 0.00 | 0.00 | 97 | 1022.3 |
| 20260906215518 | 47 | 338 | 3.5 | 7.8 | 0.00 | 0.00 | 0.00 | 97 | 1022.3 |
| 20260906214522 | 47 | 9 | 1.7 | 5.2 | 0.00 | 0.00 | 0.00 | 97 | 1022.1 |
| 20260906213527 | 46 | 16 | 3.5 | 6.1 | 0.00 | 0.00 | 0.00 | 97 | 1022.1 |
| 20260906212533 | 47 | 18 | 2.6 | 7.0 | 0.00 | 0.00 | 0.00 | 97 | 1022.2 |
| 20260906211520 | 47 | 31 | 2.6 | 4.3 | 0.00 | 0.00 | 0.00 | 97 | 1022.1 |
| 20260906210528 | 47 | 356 | 1.7 | 4.3 | 0.00 | 0.00 | 0.00 | 97 | 1022.2 |
| 20260906205516 | 47 | 5 | 1.7 | 3.5 | 0.00 | 0.00 | 0.00 | 97 | 1022.1 |
| 20260906204533 | 47 | 276 | 0.9 | 2.6 | 0.00 | 0.00 | 0.00 | 97 | 1022.3 |
| 20260906203533 | 47 | 287 | 0.9 | 2.6 | 0.00 | 0.00 | 0.00 | 97 | 1022.0 |
| 20260906202521 | 47 | 3 | 0.9 | 2.6 | 0.00 | 0.00 | 0.00 | 96 | 1021.9 |
| 20260906201529 | 47 | 38 | 0.9 | 2.6 | 0.00 | 0.00 | 0.00 | 96 | 1021.7 |
| 20260906200536 | 47 | 257 | 0.0 | 1.7 | 0.00 | 0.00 | 0.00 | 96 | 1021.7 |
| 20260906195521 | 47 | 265 | 0.0 | 1.7 | 0.00 | 0.00 | 0.00 | 96 | 1021.6 |
| 20260906194528 | 47 | 342 | 0.9 | 2.6 | 0.00 | 0.00 | 0.00 | 96 | 1021.5 |
| 20260906193533 | 47 | 354 | 0.9 | 2.6 | 0.00 | 0.00 | 0.00 | 96 | 1021.5 |
| 20260906192519 | 47 | 344 | 0.9 | 2.6 | 0.00 | 0.00 | 0.00 | 95 | 1021.4 |
| 20260906191527 | 47 | 7 | 1.7 | 3.5 | 0.00 | 0.00 | 0.00 | 95 | 1021.5 |
| 20260906190540 | 47 | 336 | 0.9 | 1.7 | 0.00 | 0.00 | 0.00 | 95 | 1021.5 |
| 20260906185527 | 47 | 4 | 0.9 | 2.6 | 0.00 | 0.00 | 0.00 | 95 | 1021.4 |
| 20260906184528 | 47 | 16 | 0.9 | 1.7 | 0.00 | 0.00 | 0.00 | 95 | 1021.5 |
| 20260906183534 | 47 | 30 | 0.9 | 3.5 | 0.00 | 0.00 | 0.00 | 95 | 1021.4 |
| 20260906182522 | 47 | 325 | 0.9 | 3.5 | 0.00 | 0.00 | 0.00 | 95 | 1021.4 |
| 20260906181530 | 46 | 281 | 1.7 | 2.6 | 0.00 | 0.00 | 0.00 | 95 | 1021.3 |
| 20260906180519 | 46 | 295 | 0.9 | 2.6 | 0.00 | 0.00 | 0.00 | 95 | 1021.4 |
| 20260906175528 | 46 | 319 | 1.7 | 4.3 | 0.00 | 0.00 | 0.00 | 95 | 1021.1 |
| 20260906174536 | 46 | 356 | 0.9 | 3.5 | 0.00 | 0.00 | 0.00 | 94 | 1021.0 |
| 20260906173522 | 46 | 351 | 1.7 | 3.5 | 0.00 | 0.00 | 0.00 | 94 | 1021.0 |
| 20260906172530 | 47 | 30 | 0.9 | 2.6 | 0.00 | 0.00 | 0.00 | 94 | 1021.0 |
| 20260906171519 | 47 | 17 | 0.9 | 1.7 | 0.00 | 0.00 | 0.00 | 94 | 1021.2 |
| 20260906170529 | 47 | 263 | 0.9 | 2.6 | 0.00 | 0.00 | 0.00 | 94 | 1021.2 |
| 20260906165535 | 47 | 354 | 0.0 | 1.7 | 0.00 | 0.00 | 0.00 | 95 | 1021.3 |
| 20260906164529 | 47 | 291 | 0.0 | 1.7 | 0.00 | 0.00 | 0.00 | 95 | 1021.4 |
| 20260906163527 | 47 | 190 | 0.9 | 1.7 | 0.00 | 0.00 | 0.00 | 96 | 1021.4 |
| 20260906162532 | 47 | 128 | 0.9 | 1.7 | 0.00 | 0.00 | 0.00 | 96 | 1021.6 |
| 20260906161526 | 47 | 190 | 0.9 | 2.6 | 0.00 | 0.00 | 0.00 | 96 | 1021.4 |
| 20260906160534 | 47 | 148 | 0.9 | 1.7 | 0.00 | 0.00 | 0.00 | 96 | 1021.6 |
| 20260906155550 | 46 | 144 | 0.9 | 1.7 | 0.00 | 0.00 | 0.00 | 96 | 1021.6 |
| 20260906154525 | 46 | 178 | 0.9 | 2.6 | 0.00 | 0.00 | 0.00 | 96 | 1021.7 |
| 20260906153531 | 46 | 140 | 0.9 | 2.6 | 0.00 | 0.00 | 0.00 | 96 | 1022.0 |
| 20260906152533 | 46 | 69 | 0.9 | 1.7 | 0.00 | 0.00 | 0.00 | 96 | 1022.2 |
| 20260906151528 | 46 | 5 | 1.7 | 3.5 | 0.00 | 0.00 | 0.00 | 96 | 1022.2 |
| 20260906150517 | 46 | 60 | 0.9 | 2.6 | 0.00 | 0.00 | 0.00 | 96 | 1022.5 |
| 20260906145525 | 46 | 219 | 0.9 | 1.7 | 0.00 | 0.00 | 0.00 | 96 | 1022.6 |
| 20260906144534 | 46 | 194 | 1.7 | 3.5 | 0.00 | 0.00 | 0.00 | 96 | 1022.4 |
| 20260906143522 | 46 | 176 | 1.7 | 3.5 | 0.00 | 0.00 | 0.00 | 95 | 1022.4 |
| 20260906142538 | 46 | 127 | 1.7 | 3.5 | 0.00 | 0.00 | 0.00 | 96 | 1022.6 |
| 20260906141518 | 46 | 179 | 1.7 | 3.5 | 0.00 | 0.00 | 0.00 | 95 | 1022.7 |
| 20260906140526 | 46 | 180 | 2.6 | 4.3 | 0.00 | 0.00 | 0.00 | 95 | 1022.5 |
| 20260906135541 | 46 | 181 | 4.3 | 5.2 | 0.00 | 0.00 | 0.00 | 95 | 1022.4 |
| 20260906134522 | 47 | 182 | 3.5 | 6.1 | 0.00 | 0.00 | 0.00 | 94 | 1022.5 |
| 20260906133530 | 47 | 184 | 1.7 | 3.5 | 0.00 | 0.00 | 0.00 | 93 | 1022.4 |
| 20260906132516 | 47 | 191 | 1.7 | 3.5 | 0.00 | 0.00 | 0.00 | 93 | 1022.6 |
| 20260906131523 | 47 | 180 | 0.9 | 3.5 | 0.00 | 0.00 | 0.00 | 93 | 1022.7 |
| 20260906130530 | 47 | 175 | 0.0 | 3.5 | 0.00 | 0.00 | 0.00 | 93 | 1022.7 |
| 20260906125517 | 47 | 0.0 | 0.0 | 0.00 | 0.00 | 0.00 | 93 | 1022.8 | |
| 20260906124523 | 47 | 0.0 | 0.0 | 0.00 | 0.00 | 0.00 | 93 | 1022.9 | |
| 20260906123531 | 47 | 301 | 0.0 | 0.9 | 0.00 | 0.00 | 0.00 | 93 | 1022.9 |
| 20260906122517 | 47 | 0.0 | 0.0 | 0.00 | 0.00 | 0.00 | 93 | 1022.9 | |
| 20260906121524 | 47 | 5 | 0.0 | 1.7 | 0.00 | 0.00 | 0.00 | 92 | 1022.9 |
| 20260906120545 | 47 | 130 | 0.0 | 0.9 | 0.00 | 0.00 | 0.00 | 92 | 1022.9 |
| 20260906115518 | 47 | 0.0 | 0.0 | 0.00 | 0.00 | 0.00 | 92 | 1022.9 | |
| 20260906114523 | 47 | 227 | 0.0 | 0.9 | 0.00 | 0.00 | 0.00 | 91 | 1022.7 |
| 20260906113529 | 48 | 350 | 0.0 | 0.9 | 0.00 | 0.00 | 0.00 | 91 | 1022.5 |
| 20260906112537 | 48 | 10 | 0.0 | 1.7 | 0.00 | 0.00 | 0.00 | 90 | 1022.4 |
| 20260906111527 | 48 | 342 | 0.0 | 0.9 | 0.00 | 0.00 | 0.00 | 90 | 1022.3 |
| 20260906110528 | 48 | 346 | 0.0 | 1.7 | 0.00 | 0.00 | 0.00 | 90 | 1022.3 |
| 20260906105534 | 48 | 43 | 0.0 | 1.7 | 0.00 | 0.00 | 0.00 | 90 | 1022.1 |
| 20260906104519 | 49 | 170 | 0.9 | 1.7 | 0.00 | 0.00 | 0.00 | 89 | 1022.1 |
| 20260906103525 | 49 | 147 | 0.0 | 1.7 | 0.00 | 0.00 | 0.00 | 89 | 1021.9 |
| 20260906102531 | 49 | 11 | 1.7 | 1.7 | 0.00 | 0.00 | 0.00 | 88 | 1021.7 |
| 20260906101517 | 50 | 1 | 1.7 | 3.5 | 0.00 | 0.00 | 0.00 | 88 | 1021.7 |
| 20260906100524 | 50 | 4 | 1.7 | 3.5 | 0.00 | 0.00 | 0.00 | 88 | 1021.6 |
| 20260906095531 | 50 | 20 | 1.7 | 3.5 | 0.00 | 0.00 | 0.00 | 88 | 1021.4 |
| 20260906094536 | 50 | 5 | 1.7 | 4.3 | 0.00 | 0.00 | 0.00 | 87 | 1021.5 |
| 20260906093521 | 50 | 5 | 1.7 | 3.5 | 0.00 | 0.00 | 0.00 | 87 | 1021.5 |
| 20260906092528 | 51 | 6 | 2.6 | 4.3 | 0.00 | 0.00 | 0.00 | 86 | 1021.2 |
| 20260906091542 | 51 | 358 | 2.6 | 7.0 | 0.00 | 0.00 | 0.00 | 86 | 1021.2 |
| 20260906090522 | 51 | 1 | 1.7 | 4.3 | 0.00 | 0.00 | 0.00 | 85 | 1021.2 |
| 20260906085528 | 51 | 357 | 3.5 | 5.2 | 0.00 | 0.00 | 0.00 | 85 | 1020.9 |
| 20260906084534 | 52 | 0 | 3.5 | 6.1 | 0.00 | 0.00 | 0.00 | 84 | 1020.9 |
| 20260906083520 | 52 | 357 | 3.5 | 6.1 | 0.00 | 0.00 | 0.00 | 84 | 1020.8 |
| 20260906082527 | 52 | 1 | 3.5 | 7.0 | 0.00 | 0.00 | 0.00 | 83 | 1020.5 |
| 20260906081541 | 53 | 356 | 3.5 | 7.8 | 0.00 | 0.00 | 0.00 | 83 | 1020.5 |
| 20260906080528 | 53 | 352 | 4.3 | 8.7 | 0.00 | 0.00 | 0.00 | 82 | 1020.4 |
| 20260906075527 | 53 | 353 | 3.5 | 6.1 | 0.00 | 0.00 | 0.00 | 82 | 1020.2 |
| 20260906074533 | 54 | 357 | 4.3 | 7.8 | 0.00 | 0.00 | 0.00 | 80 | 1020.3 |
| 20260906073525 | 55 | 353 | 3.5 | 7.8 | 0.00 | 0.00 | 0.00 | 79 | 1019.9 |
| 20260906072524 | 55 | 354 | 3.5 | 7.0 | 0.00 | 0.00 | 0.00 | 78 | 1019.8 |
| 20260906071531 | 56 | 345 | 3.5 | 7.8 | 0.00 | 0.00 | 0.00 | 76 | 1019.6 |
| 20260906070517 | 56 | 354 | 4.3 | 7.8 | 0.00 | 0.00 | 0.00 | 75 | 1019.5 |
| 20260906065523 | 57 | 347 | 3.5 | 7.0 | 0.00 | 0.00 | 0.00 | 74 | 1019.5 |
| 20260906064528 | 57 | 350 | 3.5 | 5.2 | 0.00 | 0.00 | 0.00 | 73 | 1019.4 |
| 20260906063535 | 57 | 338 | 4.3 | 9.6 | 0.00 | 0.00 | 0.00 | 73 | 1019.4 |
| 20260906062520 | 57 | 348 | 5.2 | 10.4 | 0.00 | 0.00 | 0.00 | 72 | 1019.3 |
| 20260906061526 | 57 | 356 | 5.2 | 9.6 | 0.00 | 0.00 | 0.00 | 72 | 1019.3 |
| 20260906060533 | 58 | 357 | 6.1 | 11.3 | 0.00 | 0.00 | 0.00 | 70 | 1019.5 |
| 20260906055518 | 58 | 329 | 6.1 | 13.0 | 0.00 | 0.00 | 0.00 | 68 | 1019.5 |
| 20260906054525 | 59 | 340 | 5.2 | 10.4 | 0.00 | 0.00 | 0.00 | 66 | 1019.5 |
| 20260906053532 | 58 | 330 | 6.1 | 10.4 | 0.00 | 0.00 | 0.00 | 66 | 1019.6 |
| 20260906052517 | 59 | 330 | 6.1 | 10.4 | 0.00 | 0.00 | 0.00 | 67 | 1019.5 |
| 20260906051523 | 59 | 344 | 4.3 | 13.0 | 0.00 | 0.00 | 0.00 | 67 | 1019.4 |
| 20260906050528 | 59 | 345 | 3.5 | 11.3 | 0.00 | 0.00 | 0.00 | 66 | 1019.2 |
| 20260906045535 | 59 | 337 | 6.1 | 11.3 | 0.00 | 0.00 | 0.00 | 66 | 1019.0 |
| 20260906044528 | 60 | 348 | 5.2 | 11.3 | 0.00 | 0.00 | 0.00 | 64 | 1019.0 |
| 20260906043533 | 60 | 345 | 7.0 | 13.0 | 0.00 | 0.00 | 0.00 | 65 | 1018.9 |
| 20260906042533 | 59 | 316 | 3.5 | 7.8 | 0.00 | 0.00 | 0.00 | 67 | 1018.6 |
| 20260906041519 | 58 | 333 | 4.3 | 13.0 | 0.00 | 0.00 | 0.00 | 68 | 1018.7 |
| 20260906040526 | 58 | 346 | 5.2 | 10.4 | 0.00 | 0.00 | 0.00 | 68 | 1018.5 |
| 20260906035547 | 58 | 334 | 4.3 | 11.3 | 0.00 | 0.00 | 0.00 | 68 | 1018.5 |
| 20260906034519 | 58 | 356 | 4.3 | 10.4 | 0.00 | 0.00 | 0.00 | 69 | 1018.3 |
| 20260906033525 | 58 | 359 | 6.1 | 11.3 | 0.00 | 0.00 | 0.00 | 68 | 1018.2 |
| 20260906032538 | 59 | 360 | 6.1 | 12.2 | 0.00 | 0.00 | 0.00 | 67 | 1018.1 |
| 20260906031519 | 58 | 350 | 4.3 | 9.6 | 0.00 | 0.00 | 0.00 | 68 | 1018.0 |
| 20260906030525 | 58 | 351 | 4.3 | 8.7 | 0.00 | 0.00 | 0.00 | 66 | 1018.0 |
| 20260906025530 | 57 | 336 | 5.2 | 13.0 | 0.00 | 0.00 | 0.00 | 67 | 1018.2 |
| 20260906024536 | 58 | 350 | 4.3 | 11.3 | 0.00 | 0.00 | 0.00 | 66 | 1018.1 |
| 20260906023521 | 57 | 355 | 5.2 | 11.3 | 0.00 | 0.00 | 0.00 | 66 | 1018.1 |
| 20260906022526 | 57 | 355 | 5.2 | 8.7 | 0.00 | 0.00 | 0.00 | 67 | 1017.9 |
| 20260906021532 | 58 | 349 | 6.1 | 10.4 | 0.00 | 0.00 | 0.00 | 66 | 1018.0 |
| 20260906020525 | 58 | 343 | 5.2 | 11.3 | 0.00 | 0.00 | 0.00 | 65 | 1017.9 |
| 20260906015525 | 57 | 331 | 6.1 | 12.2 | 0.00 | 0.00 | 0.00 | 64 | 1017.9 |
| 20260906014530 | 57 | 321 | 5.2 | 11.3 | 0.00 | 0.00 | 0.00 | 66 | 1017.9 |
| 20260906013534 | 57 | 340 | 6.1 | 13.0 | 0.00 | 0.00 | 0.00 | 64 | 1018.0 |
| 20260906012526 | 57 | 341 | 4.3 | 11.3 | 0.00 | 0.00 | 0.00 | 64 | 1017.8 |
| 20260906011524 | 57 | 323 | 5.2 | 9.6 | 0.00 | 0.00 | 0.00 | 64 | 1017.8 |
| 20260906010537 | 56 | 344 | 6.1 | 11.3 | 0.00 | 0.00 | 0.00 | 65 | 1017.9 |
| 20260906005543 | 57 | 342 | 4.3 | 10.4 | 0.00 | 0.00 | 0.00 | 65 | 1017.7 |
| 20260906004522 | 56 | 336 | 3.5 | 7.8 | 0.00 | 0.00 | 0.00 | 65 | 1017.6 |
| 20260906003529 | 57 | 268 | 1.7 | 5.2 | 0.00 | 0.00 | 0.00 | 57 | 1017.5 |
| 20260906002534 | 57 | 236 | 4.3 | 7.8 | 0.00 | 0.00 | 0.00 | 58 | 1017.4 |
| 20260906001527 | 56 | 226 | 3.5 | 5.2 | 0.00 | 0.00 | 0.00 | 59 | 1017.4 |
| 20260906000541 | 55 | 236 | 3.5 | 6.1 | 0.00 | 0.00 | 0.00 | 60 | 1017.5 |
| 20260905235533 | 55 | 292 | 4.3 | 7.8 | 0.00 | 0.00 | 0.00 | 62 | 1017.3 |
| 20260905234524 | 54 | 264 | 4.3 | 8.7 | 0.00 | 0.00 | 0.00 | 63 | 1017.4 |
| 20260905233524 | 54 | 244 | 4.3 | 9.6 | 0.00 | 0.00 | 0.00 | 63 | 1017.2 |
| 20260905232530 | 54 | 238 | 4.3 | 7.0 | 0.00 | 0.00 | 0.00 | 64 | 1017.1 |
| 20260905231517 | 53 | 250 | 4.3 | 9.6 | 0.00 | 0.00 | 0.00 | 65 | 1017.1 |
| 20260905230524 | 53 | 266 | 5.2 | 8.7 | 0.00 | 0.00 | 0.00 | 66 | 1017.1 |
| 20260905225530 | 53 | 263 | 4.3 | 7.0 | 0.00 | 0.00 | 0.00 | 65 | 1017.1 |
| 20260905224517 | 52 | 299 | 4.3 | 7.8 | 0.00 | 0.00 | 0.00 | 67 | 1016.9 |